AirNav   Air Wisconsin pilot careers
 
 1279 users online  

TA19 Post Oak Airfield
Weatherford, Texas, USA

GOING TO WEATHERFORD?


FAA INFORMATION EFFECTIVE 09 NOVEMBER 2017

Location

FAA Identifier: TA19
Lat/Long: 32-40-28.4720N / 097-47-01.1110W
32-40.474533N / 097-47.018517W
32.6745756 / -97.7836419
(estimated)
Elevation: 1020 ft. / 311 m (estimated)
Variation: 07E (1985)
From city: 5 miles S of WEATHERFORD, TX
Time zone: UTC -6 (UTC -5 during Daylight Saving Time)
Zip code: 76087

Airport Operations

Airport use: Private use. Permission required prior to landing
Activation date: 11/1988
Control tower: no
ARTCC: FORT WORTH CENTER
FSS: FORT WORTH FLIGHT SERVICE STATION
Attendance: IREG
Wind indicator: yes
Segmented circle: yes

Airport Communications

WX AWOS-3 at GDJ (14 nm S): 118.925 (817-573-7514)
WX ASOS at MWL (15 nm NW): 135.075 (940-325-2457)

Nearby radio navigation aids

VOR radial/distance  VOR name  Freq  Var
MQPr097/11.2MILLSAP VORTAC117.7009E
JENr003/31.3GLEN ROSE VORTAC115.0006E
FUZr241/33.1RANGER VORTAC115.7006E
TTTr247/39.3MAVERICK VOR/DME113.1006E

Airport Services

Runway Information

Runway 18/36

Dimensions: 2350 x 30 ft. / 716 x 9 m
Surface: gravel, in fair condition
HAS SOFT SPOTS WHEN WET.
Runway edge markings: 18/36 HAS WHITE REFLECTORS WITH WHITE ACFT TIRES ALONG BOTH SIDES WITH A SINGLE RED ON EITHER SIDE AT RY 18 & A SINGLE BLUE ON EITHER SIDE AT RY 36.
Operational restrictions: UPSLOPE SOUTH 1/2 OF RY 18.
RUNWAY 18  RUNWAY 36
Traffic pattern: leftright
Obstructions: 15 ft. trees, 50 ft. right of centerline4 ft. brush, 50 ft. left of centerline

Airport Ownership and Management from official FAA records

Ownership: Privately-owned
Owner: JOHN G. GOOD
1501A LOWER TARRANT
GRAND PRAIRIE, TX 75050
Phone 214-606-0378
WORK PHONE AT FT WORTH POLICE HELICOPTERS 817-870-8311.
Manager: JOHN G. GOOD
1501 A LOWER TARRANT
WEATHERFORD, TX 76087
Phone 214-606-0378

Airport Operational Statistics

Aircraft based on the field: 1
Single engine airplanes: 1
    
Aircraft operations: 150/year *
67% local general aviation
33% transient general aviation
* for 12-month period ending 08 February 1995

Instrument Procedures

There are no published instrument procedures at TA19.

Some nearby airports with instrument procedures:

KWEA - Parker County Airport (7 nm NE)
50F - Bourland Field Airport (11 nm SE)
KGDJ - Granbury Regional Airport (14 nm S)
KMWL - Mineral Wells Airport (15 nm NW)
KNFW - Fort Worth Naval Air Station JRB (Carswell Field) Airport (18 nm E)
 
Loc | Ops | Rwys | IFR | FBO | Links
Com | Nav | Svcs | Stats | Notes


 
Area around TA19 (Post Oak Airfield)
 
Road maps at: MapQuest Bing Google
 
Aerial photo
No photo
 
Sectional chart

 
Airport distance calculator
Flying to Post Oak Airfield? Find the distance to fly.

From to TA19

Sunrise and sunset
Times for 21-Nov-2017
 Local
(UTC-6)
 Zulu
(UTC)
Morning civil twilight06:4112:41
Sunrise07:0813:08
Sunset17:2723:27
Evening civil twilight17:5323:53

Current date and time
Zulu (UTC)  21-Nov-2017 14:59:29
Local (UTC-6)  21-Nov-2017 08:59:29
 
METAR
KGDJ 
14nm S 
AWOS-3 118.925 817-573-7514
211435Z AUTO 12005KT 10SM CLR 10/07 A2987 RMK AO2 T00980073
KMWL 
16nm NW 
211453Z AUTO 14006KT 10SM CLR 09/04 A2983 RMK AO2 SLP099 T00890039 51010
KNFW 
18nm E 
211352Z 16008KT 10SM FEW150 BKN300 11/08 A2987 RMK AO2 SLP098 T01110083 $
KFTW 
23nm NE 
211453Z 13008KT 10SM CLR 12/10 A2986 RMK AO2 SLP108 T01220100 50010
KFWS 
25nm E 
211446Z 13004KT 10SM CLR 11/09 A2989
KCPT 
26nm SE 
211455Z AUTO 18009G15KT 9SM CLR 11/11 A2988 RMK AO2
TAF
KNFW 
18nm E 
2107/2207 21010KT 9999 BKN300 QNH2987INS BECMG 2117/2119 22008KT 9999 SCT200 QNH2980INS FM212100 02008KT 9999 SCT250 QNH2987INS FM220300 04012KT 9999 SCT250 QNH2995INS AUTOMATED SENSOR METWATCH 2107 TIL 2111 T09/2112Z T18/2121Z FN00191
NOTAMs
Click for the latest NOTAMs
NOTAMs are issued by the DoD/FAA and will open in a separate window not controlled by AirNav.

 

 
 

Would you like to see your business listed on this page?

 If your business provides an interesting product or service to pilots, flight crews, aircraft, or users of the Post Oak Airfield, you should consider listing it here.  To start the listing process, click on the button below
 
Add a business
 

Other Pages about Post Oak Airfield

Update a link
 
Copyright © AirNav, LLC. All rights reserved. Privacy Policy  Contact